NFC57EL EDDS-EDDH

Flight info

Callsign NFC57EL
Flight time 0h 58m
Altitude 32000
Route OKIBA4H/07 OKIBA N851 RIMKI Z99 LOHRE/N0484F330 DCT MASEK DCT ELNAT/N0484F340 P605 NOLGO NOLGO6A
Aircraft MD11/H-SDE1E2E3FGHIJ2J3J4J5M1RWXY/LB1D1

Departure

Time 2026-04-21 18:42
Airport Stuttgart Airport (EDDS)

Arrival

Time 2026-04-21 19:41
Airport Hamburg Helmut Schmidt Airport (EDDH)
Time Latitude Longitude Altitude Speed Heading
2026-04-21 18:14 48.68400 9.20682 1288 ft 0 kts 164°
2026-04-21 18:30 48.68411 9.20677 1285 ft 4 kts 169°
2026-04-21 18:31 48.68436 9.20674 1283 ft 4 kts 196°
2026-04-21 18:31 48.68456 9.20688 1282 ft 4 kts 235°
2026-04-21 18:31 48.68463 9.20706 1282 ft 0 kts 254°
2026-04-21 18:35 48.68463 9.20703 1283 ft 0 kts 254°
2026-04-21 18:36 48.68462 9.20702 1283 ft 0 kts 254°
2026-04-21 18:36 48.68462 9.20701 1283 ft 1 kts 254°
2026-04-21 18:36 48.68457 9.20674 1282 ft 5 kts 253°
2026-04-21 18:37 48.68441 9.20592 1286 ft 11 kts 252°
2026-04-21 18:37 48.68410 9.20448 1288 ft 17 kts 253°
2026-04-21 18:37 48.68372 9.20261 1292 ft 16 kts 253°
2026-04-21 18:37 48.68371 9.20156 1295 ft 10 kts 298°
2026-04-21 18:38 48.68411 9.20103 1295 ft 0 kts 336°
2026-04-21 18:39 48.68439 9.20087 1294 ft 16 kts 339°
2026-04-21 18:39 48.68518 9.20060 1292 ft 9 kts 358°
2026-04-21 18:39 48.68568 9.20095 1290 ft 9 kts 40°
2026-04-21 18:40 48.68598 9.20173 1288 ft 0 kts 72°
2026-04-21 18:41 48.68610 9.20228 1287 ft 25 kts 71°
2026-04-21 18:42 48.69614 9.25939 2679 ft 169 kts 74°
2026-04-21 18:42 48.69940 9.27622 3435 ft 166 kts 73°
2026-04-21 18:42 48.70273 9.29308 4038 ft 170 kts 73°
2026-04-21 18:43 48.70608 9.31014 4340 ft 170 kts 73°
2026-04-21 18:43 48.70944 9.32743 4529 ft 178 kts 73°
2026-04-21 18:43 48.71304 9.34600 4889 ft 197 kts 73°
2026-04-21 18:43 48.71714 9.36726 5452 ft 215 kts 74°
2026-04-21 18:44 48.72109 9.38952 6097 ft 234 kts 75°
2026-04-21 18:44 48.72563 9.41371 6235 ft 248 kts 74°
2026-04-21 18:44 48.73064 9.43961 5543 ft 263 kts 73°
2026-04-21 18:44 48.73693 9.46480 5501 ft 250 kts 65°
2026-04-21 18:45 48.74267 9.47980 5459 ft 247 kts 56°
2026-04-21 18:45 48.75874 9.50484 5480 ft 251 kts 38°
2026-04-21 18:45 48.77409 9.51747 5479 ft 255 kts 24°
2026-04-21 18:45 48.79145 9.52372 5476 ft 259 kts
2026-04-21 18:46 48.80959 9.52380 5477 ft 262 kts
2026-04-21 18:46 48.82786 9.52180 5474 ft 263 kts 359°
2026-04-21 18:46 48.84614 9.51948 5901 ft 260 kts 359°
2026-04-21 18:46 48.86428 9.51777 6939 ft 264 kts
2026-04-21 18:47 48.88258 9.51733 7882 ft 268 kts
2026-04-21 18:47 48.90139 9.51711 8800 ft 272 kts
2026-04-21 18:47 48.92042 9.51685 9689 ft 277 kts
2026-04-21 18:47 48.93988 9.51652 10441 ft 287 kts
2026-04-21 18:48 48.96090 9.51614 10576 ft 317 kts
2026-04-21 18:48 48.98396 9.51567 10741 ft 345 kts
2026-04-21 18:48 49.00825 9.51507 11502 ft 352 kts
2026-04-21 18:48 49.03287 9.51441 12362 ft 355 kts
2026-04-21 18:49 49.05768 9.51373 13205 ft 359 kts
2026-04-21 18:49 49.08283 9.51304 14043 ft 363 kts
2026-04-21 18:49 49.09964 9.51259 14524 ft 365 kts
2026-04-21 18:49 49.13351 9.51167 15480 ft 370 kts 360°
2026-04-21 18:50 49.15935 9.51095 16170 ft 373 kts
2026-04-21 18:50 49.18538 9.51025 16873 ft 376 kts
2026-04-21 18:50 49.21165 9.50961 17545 ft 379 kts
2026-04-21 18:50 49.23818 9.50892 18222 ft 382 kts 360°
2026-04-21 18:51 49.26486 9.50818 18828 ft 385 kts 360°
2026-04-21 18:51 49.29178 9.50744 19391 ft 388 kts 359°
2026-04-21 18:51 49.31888 9.50670 19946 ft 391 kts 359°
2026-04-21 18:51 49.34615 9.50594 20488 ft 394 kts 359°
2026-04-21 18:52 49.37363 9.50519 20998 ft 397 kts 360°
2026-04-21 18:52 49.40136 9.50444 21523 ft 400 kts 360°
2026-04-21 18:52 49.42930 9.50368 22092 ft 403 kts 359°
2026-04-21 18:52 49.45745 9.50292 22644 ft 406 kts 359°
2026-04-21 18:53 49.48579 9.50216 23206 ft 409 kts 359°
2026-04-21 18:53 49.51434 9.50139 23776 ft 412 kts 359°
2026-04-21 18:53 49.54275 9.50062 24250 ft 415 kts 359°
2026-04-21 18:53 49.57179 9.49983 24743 ft 418 kts 359°
2026-04-21 18:54 49.60099 9.49903 25219 ft 422 kts
2026-04-21 18:54 49.63049 9.49822 25718 ft 425 kts 360°
2026-04-21 18:54 49.66015 9.49742 26210 ft 428 kts 360°
2026-04-21 18:54 49.69006 9.49661 26691 ft 431 kts 359°
2026-04-21 18:55 49.70992 9.49607 27024 ft 433 kts 359°
2026-04-21 18:55 49.75046 9.49495 27673 ft 437 kts 359°
2026-04-21 18:55 49.78098 9.49411 28152 ft 440 kts 359°
2026-04-21 18:55 49.81172 9.49326 28612 ft 444 kts 360°
2026-04-21 18:56 49.84278 9.49240 29010 ft 448 kts
2026-04-21 18:56 49.87406 9.49154 29450 ft 451 kts 360°
2026-04-21 18:56 49.90514 9.49069 29884 ft 455 kts 360°
2026-04-21 18:56 49.93689 9.48982 30307 ft 458 kts 360°
2026-04-21 18:57 49.96880 9.48894 30635 ft 461 kts 360°
2026-04-21 18:57 50.00094 9.48805 30961 ft 463 kts 360°
2026-04-21 18:57 50.03319 9.48716 31299 ft 464 kts 359°
2026-04-21 18:57 50.06554 9.48698 31672 ft 464 kts
2026-04-21 18:58 50.09773 9.48994 32059 ft 464 kts
2026-04-21 18:58 50.12986 9.49484 32199 ft 464 kts
2026-04-21 18:58 50.16199 9.50056 32232 ft 465 kts
2026-04-21 18:59 50.22622 9.51229 32241 ft 465 kts
2026-04-21 18:59 50.29004 9.52341 32240 ft 465 kts
2026-04-21 19:00 50.35442 9.53433 32244 ft 465 kts
2026-04-21 19:00 50.41881 9.54519 32249 ft 465 kts
2026-04-21 19:01 50.48317 9.55610 32247 ft 465 kts
2026-04-21 19:01 50.54767 9.56703 32248 ft 466 kts
2026-04-21 19:02 50.61215 9.57803 32254 ft 466 kts
2026-04-21 19:02 50.67668 9.58907 32260 ft 466 kts
2026-04-21 19:03 50.74066 9.60029 32257 ft 466 kts
2026-04-21 19:03 50.80510 9.61265 32260 ft 466 kts
2026-04-21 19:04 50.86946 9.62525 32264 ft 466 kts
2026-04-21 19:04 50.93384 9.63782 32262 ft 466 kts
2026-04-21 19:05 50.99818 9.65035 32263 ft 466 kts 10°
2026-04-21 19:05 51.06212 9.66284 32264 ft 466 kts 10°
2026-04-21 19:06 51.12646 9.67544 32263 ft 466 kts 10°
2026-04-21 19:06 51.19084 9.68805 32259 ft 466 kts 11°
2026-04-21 19:07 51.25530 9.69931 32272 ft 466 kts
2026-04-21 19:07 51.31989 9.70966 32275 ft 466 kts
2026-04-21 19:08 51.38443 9.72000 32271 ft 466 kts
2026-04-21 19:08 51.44894 9.73045 32270 ft 465 kts 10°
2026-04-21 19:09 51.51281 9.74200 32277 ft 465 kts 11°
2026-04-21 19:09 51.57697 9.75440 32282 ft 465 kts 11°
2026-04-21 19:10 51.64118 9.76671 32277 ft 465 kts 11°
2026-04-21 19:10 51.70517 9.77924 32295 ft 463 kts 12°
2026-04-21 19:11 51.76904 9.79200 32290 ft 463 kts 12°
2026-04-21 19:11 51.83258 9.80433 32295 ft 463 kts 12°
2026-04-21 19:12 51.88614 9.81463 32280 ft 462 kts 12°
2026-04-21 19:12 51.96018 9.82898 32302 ft 461 kts 12°
2026-04-21 19:13 52.02384 9.84138 32298 ft 461 kts 12°
2026-04-21 19:13 52.08753 9.85336 32303 ft 461 kts 11°
2026-04-21 19:14 52.14051 9.86313 32297 ft 461 kts 11°
2026-04-21 19:14 52.20421 9.87532 32305 ft 461 kts 11°
2026-04-21 19:15 52.27757 9.89444 32312 ft 457 kts 18°
2026-04-21 19:15 52.32894 9.91650 32048 ft 453 kts 20°
2026-04-21 19:15 52.36874 9.93473 30885 ft 445 kts 20°
2026-04-21 19:16 52.38882 9.94392 30289 ft 443 kts 20°
2026-04-21 19:16 52.41853 9.95742 29275 ft 443 kts 20°
2026-04-21 19:16 52.44832 9.97085 28296 ft 446 kts 20°
2026-04-21 19:16 52.47794 9.98409 27377 ft 448 kts 20°
2026-04-21 19:17 52.53833 10.01090 26209 ft 450 kts 20°
2026-04-21 19:17 52.56848 10.02430 25824 ft 448 kts 19°
2026-04-21 19:17 52.59851 10.03766 25462 ft 445 kts 20°
2026-04-21 19:18 52.62827 10.05093 25363 ft 442 kts 20°
2026-04-21 19:18 52.65769 10.06406 24753 ft 435 kts 20°
2026-04-21 19:18 52.68688 10.07713 23776 ft 431 kts 20°
2026-04-21 19:18 52.71563 10.09003 22730 ft 425 kts 20°
2026-04-21 19:19 52.74393 10.10275 21722 ft 419 kts 19°
2026-04-21 19:19 52.77204 10.11424 20714 ft 416 kts 14°
2026-04-21 19:19 52.80067 10.11972 19813 ft 413 kts
2026-04-21 19:19 52.82930 10.12155 18897 ft 409 kts
2026-04-21 19:20 52.85725 10.12204 17991 ft 405 kts
2026-04-21 19:20 52.88521 10.12226 17086 ft 399 kts
2026-04-21 19:20 52.91271 10.12261 16254 ft 393 kts
2026-04-21 19:20 52.93990 10.12316 15446 ft 387 kts
2026-04-21 19:21 52.96662 10.12386 14655 ft 381 kts
2026-04-21 19:21 52.99298 10.12465 13878 ft 376 kts
2026-04-21 19:21 53.01896 10.12548 13079 ft 371 kts
2026-04-21 19:21 53.04452 10.12632 12491 ft 363 kts
2026-04-21 19:22 53.06990 10.12718 12123 ft 364 kts
2026-04-21 19:22 53.09511 10.12804 11738 ft 361 kts
2026-04-21 19:22 53.12003 10.12887 11355 ft 357 kts
2026-04-21 19:22 53.14450 10.12970 10983 ft 355 kts
2026-04-21 19:23 53.16916 10.13053 10611 ft 353 kts
2026-04-21 19:23 53.19357 10.13135 10387 ft 350 kts
2026-04-21 19:23 53.21785 10.13216 10340 ft 349 kts
2026-04-21 19:23 53.24195 10.13297 10271 ft 340 kts
2026-04-21 19:24 53.26496 10.13368 10135 ft 322 kts
2026-04-21 19:24 53.28684 10.13436 9995 ft 307 kts
2026-04-21 19:24 53.30772 10.13503 9848 ft 293 kts
2026-04-21 19:24 53.32762 10.13568 9722 ft 280 kts
2026-04-21 19:25 53.34644 10.13631 9524 ft 270 kts
2026-04-21 19:25 53.36498 10.13673 9282 ft 262 kts
2026-04-21 19:25 53.38324 10.13376 8622 ft 269 kts 351°
2026-04-21 19:25 53.40022 10.12307 8258 ft 253 kts 335°
2026-04-21 19:26 53.41420 10.10614 7655 ft 248 kts 321°
2026-04-21 19:26 53.42615 10.08539 6956 ft 246 kts 316°
2026-04-21 19:26 53.43754 10.06408 6237 ft 244 kts 315°
2026-04-21 19:26 53.44874 10.04295 5562 ft 241 kts 315°
2026-04-21 19:27 53.45979 10.02215 5070 ft 237 kts 315°
2026-04-21 19:27 53.47090 10.00133 4674 ft 238 kts 315°
2026-04-21 19:27 53.48148 9.98002 4273 ft 238 kts 306°
2026-04-21 19:27 53.48796 9.95463 4013 ft 238 kts 281°
2026-04-21 19:28 53.48719 9.92736 3993 ft 240 kts 252°
2026-04-21 19:28 53.47929 9.90286 4008 ft 240 kts 232°
2026-04-21 19:28 53.46894 9.88086 3996 ft 240 kts 229°
2026-04-21 19:28 53.45825 9.85929 3998 ft 241 kts 229°
2026-04-21 19:29 53.44750 9.83778 3991 ft 241 kts 229°
2026-04-21 19:29 53.43675 9.81628 3964 ft 240 kts 229°
2026-04-21 19:29 53.42602 9.79480 3960 ft 241 kts 229°
2026-04-21 19:29 53.41526 9.77329 3965 ft 240 kts 229°
2026-04-21 19:30 53.40454 9.75185 3963 ft 241 kts 229°
2026-04-21 19:30 53.39379 9.73038 3964 ft 241 kts 229°
2026-04-21 19:30 53.38302 9.70886 3966 ft 240 kts 229°
2026-04-21 19:30 53.37228 9.68743 3966 ft 240 kts 229°
2026-04-21 19:31 53.36166 9.66628 3965 ft 240 kts 229°
2026-04-21 19:31 53.35091 9.64485 3968 ft 240 kts 229°
2026-04-21 19:31 53.34019 9.62351 3964 ft 239 kts 229°
2026-04-21 19:31 53.33225 9.59923 3950 ft 240 kts 256°
2026-04-21 19:32 53.33252 9.57176 3958 ft 238 kts 289°
2026-04-21 19:32 53.34101 9.54871 3965 ft 233 kts 321°
2026-04-21 19:32 53.35507 9.53676 3965 ft 226 kts 353°
2026-04-21 19:32 53.37036 9.53881 3969 ft 221 kts 20°
2026-04-21 19:33 53.37997 9.54451 3977 ft 222 kts 24°
2026-04-21 19:33 53.39918 9.55701 3966 ft 221 kts 24°
2026-04-21 19:33 53.41351 9.56636 3967 ft 221 kts 24°
2026-04-21 19:33 53.42598 9.58052 3965 ft 216 kts 48°
2026-04-21 19:34 53.43585 9.59945 3799 ft 213 kts 51°
2026-04-21 19:34 53.44547 9.61838 3398 ft 215 kts 51°
2026-04-21 19:34 53.45508 9.63727 3059 ft 214 kts 51°
2026-04-21 19:34 53.46473 9.65629 3003 ft 215 kts 51°
2026-04-21 19:35 53.47434 9.67528 2988 ft 209 kts 51°
2026-04-21 19:35 53.49091 9.70806 2975 ft 166 kts 51°
2026-04-21 19:35 53.49828 9.72274 2971 ft 164 kts 52°
2026-04-21 19:36 53.50561 9.73737 2922 ft 162 kts 52°
2026-04-21 19:36 53.51291 9.75194 3013 ft 164 kts 51°
2026-04-21 19:36 53.52022 9.76655 2980 ft 163 kts 52°
2026-04-21 19:36 53.52753 9.78119 2979 ft 164 kts 52°
2026-04-21 19:37 53.53487 9.79589 2751 ft 163 kts 52°
2026-04-21 19:37 53.54200 9.81019 2523 ft 162 kts 52°
2026-04-21 19:37 53.54907 9.82436 2297 ft 154 kts 52°
2026-04-21 19:37 53.55589 9.83807 2095 ft 152 kts 52°
2026-04-21 19:38 53.56267 9.85171 1875 ft 152 kts 51°
2026-04-21 19:38 53.56939 9.86523 1678 ft 149 kts 51°
2026-04-21 19:38 53.57592 9.87837 1470 ft 144 kts 51°
2026-04-21 19:38 53.58233 9.89128 1271 ft 143 kts 51°
2026-04-21 19:39 53.58869 9.90414 1015 ft 143 kts 51°
2026-04-21 19:39 53.59505 9.91696 793 ft 143 kts 50°
2026-04-21 19:39 53.60151 9.92994 625 ft 146 kts 49°
2026-04-21 19:39 53.60803 9.94302 373 ft 147 kts 49°
2026-04-21 19:40 53.61455 9.95633 263 ft 149 kts 51°
2026-04-21 19:40 53.62107 9.96936 57 ft 140 kts 50°
2026-04-21 19:40 53.62619 9.97970 51 ft 87 kts 50°
2026-04-21 19:40 53.62903 9.98559 52 ft 68 kts 50°
2026-04-21 19:41 53.63078 9.99046 55 ft 29 kts 82°
2026-04-21 19:41 53.63078 9.99115 54 ft 0 kts 92°
2026-04-21 19:41 53.63078 9.99127 56 ft 4 kts 94°
2026-04-21 19:41 53.63071 9.99189 55 ft 6 kts 112°
2026-04-21 19:42 53.63049 9.99227 51 ft 6 kts 153°
2026-04-21 19:42 53.63032 9.99228 52 ft 3 kts 191°
2026-04-21 19:42 53.62988 9.99157 56 ft 6 kts 230°
2026-04-21 19:42 53.62977 9.99134 54 ft 6 kts 230°
2026-04-21 19:43 53.62935 9.99050 52 ft 13 kts 230°
2026-04-21 19:43 53.62873 9.98957 52 ft 11 kts 207°
2026-04-21 19:43 53.62806 9.98958 55 ft 0 kts 160°
2026-04-21 19:43 53.62805 9.98959 52 ft 1 kts 160°
2026-04-21 19:44 53.62778 9.98984 54 ft 6 kts 140°
2026-04-21 19:44 53.62764 9.99055 53 ft 0 kts 94°
2026-04-21 19:44 53.62770 9.99087 53 ft 4 kts 67°
2026-04-21 19:44 53.62779 9.99123 55 ft 0 kts 64°
2026-04-21 19:45 53.62780 9.99129 55 ft 0 kts 64°